Trapani, Italy

9:29 AM CET on January 17, 2018 (GMT +0100)
Birgi Mil

Weather History for LICT - December, 2012

Change the Weather History Date:

Monday, December 17, 2012

  Actual Average Record
Temperature  
Mean Temperature 59 °F -  
Max Temperature 62 °F 60 °F 64 °F (1997)
Min Temperature 56 °F 48 °F 41 °F (2001)
Degree Days  
Heating Degree Days 6    
Growing Degree Days 9 (Base 50)    
Moisture  
Dew Point 57 °F    
Average Humidity 88    
Maximum Humidity 94    
Minimum Humidity 82    
Precipitation  
Precipitation 0.01 in 0.08 in - ()
Sea Level Pressure  
Sea Level Pressure 29.99 in    
Wind  
Wind Speed 11 mph ()    
Max Wind Speed 21 mph    
Max Gust Speed -    
Visibility 6.7 miles    
Events Rain    
Averages and records for this station are not official NWS values.
T = Trace of Precipitation, MM = Missing Value Source: Averaged Metar Reports

Daily Weather History Graph

Daily Weather History Graph

Search for Another Location

Airport or City:

Trip Planner

Search our weather history database for the weather conditions in past years. The results will help you decide how hot, cold, wet, or windy it might be!

Date:

Astronomy

Dec. 17, 2012 Rise Set
Actual Time 7:20 AM CET 4:52 PM CET
Civil Twilight 6:50 AM CET 5:22 PM CET
Nautical Twilight 6:17 AM CET 5:55 PM CET
Astronomical Twilight 5:45 AM CET 6:27 PM CET
Moon 10:22 AM CET 9:51 PM CET
Length of Visible Light 10h 31m
Length of Day
9h 32m
Waxing Crescent, 22% of the Moon is Illuminated
Dec 17
Waxing Crescent
Dec 20
First Quarter
Dec 28
Full
Jan 5
Last Quarter
Jan 11
New

Hourly Weather History & Observations

Time (CET) Temp. Dew Point Humidity Pressure Visibility Wind Dir Wind Speed Gust Speed Precip Events Conditions
12:55 AM 59.0 °F 57.2 °F 94% 30.04 in - West 11.5 mph - N/A   Clear
1:00 AM 59 °F 56 °F 88% 30.05 in 9 mi West 11.5 mph - -  
1:55 AM 57.2 °F 55.4 °F 94% 30.04 in - West 9.2 mph - N/A   Clear
2:55 AM 59.0 °F 55.4 °F 88% 30.04 in - WNW 16.1 mph - N/A   Clear
3:55 AM 57.2 °F 55.4 °F 94% 30.04 in - WNW 11.5 mph - N/A   Clear
4:55 AM 59.0 °F 57.2 °F 94% 30.01 in - WNW 9.2 mph - N/A   Clear
5:55 AM 59.0 °F 55.4 °F 88% 30.01 in 6.2 mi West 10.4 mph - N/A   Partly Cloudy
6:55 AM 59.0 °F 55.4 °F 88% 30.01 in 6.2 mi West 13.8 mph - N/A   Partly Cloudy
7:00 AM 59 °F 56 °F 87% 30.02 in 6 mi West 13.8 mph - -   Scattered Clouds
7:55 AM 59.0 °F 55.4 °F 88% 30.01 in 6.2 mi West 13.8 mph - N/A   Scattered Clouds
8:55 AM 60.8 °F 57.2 °F 88% 30.01 in 6.2 mi West 12.7 mph - N/A   Scattered Clouds
9:55 AM 62.6 °F 59.0 °F 88% 30.04 in 6.2 mi West 8.1 mph - N/A   Partly Cloudy
10:55 AM 60.8 °F 57.2 °F 88% 30.01 in 6.2 mi West 6.9 mph - N/A   Partly Cloudy
11:55 AM 62.6 °F 59.0 °F 88% 30.01 in 6.2 mi West 8.1 mph - N/A   Scattered Clouds
12:55 PM 60.8 °F 57.2 °F 88% 29.98 in 6.2 mi West 8.1 mph - N/A   Scattered Clouds
1:00 PM 62 °F 58 °F 82% 29.99 in 11 mi West 8.1 mph - -   Overcast
1:55 PM 60.8 °F 59.0 °F 94% 29.95 in 6.2 mi West 10.4 mph - N/A Rain Light Rain
2:55 PM 60.8 °F 59.0 °F 94% 29.95 in 6.2 mi West 13.8 mph - N/A   Scattered Clouds
3:55 PM 60.8 °F 59.0 °F 94% 29.92 in 6.2 mi West 11.5 mph - N/A   Scattered Clouds
4:55 PM 60.8 °F 57.2 °F 88% 29.92 in 6.2 mi West 13.8 mph - N/A   Scattered Clouds
5:55 PM 60.8 °F 57.2 °F 88% 29.92 in 6.2 mi West 12.7 mph - N/A   Scattered Clouds
6:55 PM 60.8 °F 55.4 °F 82% 29.92 in 6.2 mi West 20.7 mph - N/A   Partly Cloudy
7:00 PM 60 °F 56 °F 83% 29.94 in 7 mi West 20.7 mph - -   Partly Cloudy
7:55 PM 59.0 °F 55.4 °F 88% 29.92 in - WNW 19.6 mph - N/A   Clear
8:55 PM 59.0 °F 53.6 °F 82% 29.92 in - West 15.0 mph - N/A   Clear
9:55 PM 59.0 °F 53.6 °F 82% 29.95 in - WNW 15.0 mph - N/A   Clear